TimeEDT,TemperatureF,Dew PointF,Humidity,Sea Level PressureIn,VisibilityMPH,Wind Direction,Wind SpeedMPH,Gust SpeedMPH,PrecipitationIn,Events,Conditions,WindDirDegrees,DateUTC
12:15 AM,51.8,48.2,88,30.05,10.0,South,9.2,-,N/A,,Overcast,180,2013-04-30 04:15:00
12:35 AM,53.6,48.2,82,30.05,10.0,South,10.4,-,N/A,,Overcast,170,2013-04-30 04:35:00
12:55 AM,53.6,48.2,82,30.06,10.0,South,9.2,-,N/A,,Overcast,170,2013-04-30 04:55:00
1:15 AM,53.6,48.2,82,30.06,10.0,South,6.9,-,N/A,,Overcast,180,2013-04-30 05:15:00
1:35 AM,53.6,48.2,82,30.07,10.0,South,8.1,-,N/A,,Overcast,190,2013-04-30 05:35:00
1:55 AM,53.6,48.2,82,30.07,10.0,South,8.1,-,N/A,,Overcast,180,2013-04-30 05:55:00
2:15 AM,53.6,48.2,82,30.07,10.0,South,8.1,-,N/A,,Overcast,180,2013-04-30 06:15:00
2:35 AM,53.6,48.2,82,30.07,10.0,South,8.1,-,N/A,,Overcast,180,2013-04-30 06:35:00
2:55 AM,53.6,48.2,82,30.07,10.0,South,8.1,-,N/A,,Overcast,190,2013-04-30 06:55:00
3:15 AM,53.6,50.0,88,30.07,10.0,South,8.1,-,N/A,,Overcast,180,2013-04-30 07:15:00
3:35 AM,53.6,48.2,82,30.08,10.0,South,6.9,-,N/A,,Overcast,180,2013-04-30 07:35:00
3:55 AM,53.6,50.0,88,30.09,10.0,South,5.8,-,N/A,,Overcast,180,2013-04-30 07:55:00
4:15 AM,53.6,50.0,88,30.09,10.0,South,6.9,-,N/A,,Overcast,190,2013-04-30 08:15:00
4:35 AM,53.6,50.0,88,30.09,10.0,South,6.9,-,N/A,,Overcast,180,2013-04-30 08:35:00
4:55 AM,53.6,50.0,88,30.10,10.0,South,8.1,-,N/A,,Overcast,170,2013-04-30 08:55:00
5:15 AM,53.6,50.0,88,30.10,10.0,South,9.2,-,N/A,,Overcast,170,2013-04-30 09:15:00
5:35 AM,53.6,50.0,88,30.10,10.0,South,10.4,16.1,N/A,,Overcast,170,2013-04-30 09:35:00
5:55 AM,53.6,50.0,88,30.11,10.0,South,10.4,-,N/A,,Overcast,180,2013-04-30 09:55:00
6:15 AM,53.6,50.0,88,30.11,10.0,South,9.2,-,N/A,,Overcast,180,2013-04-30 10:15:00
6:35 AM,53.6,50.0,88,30.12,10.0,South,9.2,-,N/A,,Overcast,180,2013-04-30 10:35:00
6:55 AM,53.6,50.0,88,30.13,10.0,South,8.1,-,N/A,,Overcast,170,2013-04-30 10:55:00
7:15 AM,53.6,50.0,88,30.13,10.0,South,9.2,-,N/A,,Overcast,170,2013-04-30 11:15:00
7:35 AM,53.6,50.0,88,30.14,10.0,South,10.4,-,N/A,,Overcast,170,2013-04-30 11:35:00
7:55 AM,53.6,50.0,88,30.13,10.0,SSE,13.8,17.3,N/A,,Overcast,160,2013-04-30 11:55:00
8:15 AM,55.4,48.2,77,30.14,10.0,South,13.8,19.6,N/A,,Overcast,170,2013-04-30 12:15:00
8:35 AM,55.4,50.0,82,30.15,10.0,South,11.5,-,N/A,,Overcast,180,2013-04-30 12:35:00
8:55 AM,55.4,48.2,77,30.15,10.0,SSE,15.0,20.7,N/A,,Overcast,160,2013-04-30 12:55:00
9:15 AM,55.4,48.2,77,30.15,10.0,SSE,11.5,-,N/A,,Overcast,160,2013-04-30 13:15:00
9:35 AM,55.4,48.2,77,30.15,10.0,South,11.5,-,N/A,,Overcast,170,2013-04-30 13:35:00
9:55 AM,57.2,50.0,77,30.15,10.0,South,12.7,17.3,N/A,,Overcast,190,2013-04-30 13:55:00
10:15 AM,57.2,48.2,72,30.15,10.0,South,11.5,18.4,N/A,,Overcast,170,2013-04-30 14:15:00
10:35 AM,57.2,50.0,77,30.16,10.0,South,12.7,19.6,N/A,,Overcast,180,2013-04-30 14:35:00
10:55 AM,59.0,50.0,72,30.16,10.0,South,11.5,18.4,N/A,,Overcast,170,2013-04-30 14:55:00
11:15 AM,59.0,48.2,67,30.16,10.0,South,11.5,-,N/A,,Overcast,180,2013-04-30 15:15:00
11:35 AM,60.8,50.0,68,30.16,10.0,South,11.5,16.1,N/A,,Overcast,170,2013-04-30 15:35:00
11:55 AM,60.8,48.2,63,30.17,10.0,South,11.5,-,N/A,,Mostly Cloudy,190,2013-04-30 15:55:00
12:15 PM,62.6,50.0,63,30.17,10.0,SSE,11.5,-,N/A,,Overcast,160,2013-04-30 16:15:00
12:35 PM,60.8,48.2,63,30.17,10.0,South,11.5,17.3,N/A,,Mostly Cloudy,170,2013-04-30 16:35:00
12:55 PM,62.6,48.2,59,30.17,10.0,South,10.4,-,N/A,,Mostly Cloudy,190,2013-04-30 16:55:00
1:15 PM,62.6,50.0,63,30.17,6.0,SSE,6.9,16.1,N/A,,Mostly Cloudy,150,2013-04-30 17:15:00
1:35 PM,62.6,50.0,63,30.18,10.0,SE,13.8,18.4,N/A,,Mostly Cloudy,140,2013-04-30 17:35:00
1:55 PM,64.4,50.0,59,30.18,10.0,SSE,13.8,18.4,N/A,,Mostly Cloudy,150,2013-04-30 17:55:00
2:15 PM,64.4,50.0,59,30.18,10.0,SSW,10.4,-,N/A,,Scattered Clouds,200,2013-04-30 18:15:00
2:35 PM,64.4,48.2,56,30.19,10.0,SSE,9.2,16.1,N/A,,Scattered Clouds,150,2013-04-30 18:35:00
2:55 PM,64.4,50.0,59,30.18,10.0,ESE,10.4,-,N/A,,Mostly Cloudy,120,2013-04-30 18:55:00
3:15 PM,66.2,50.0,56,30.18,10.0,South,10.4,-,N/A,,Scattered Clouds,190,2013-04-30 19:15:00
3:35 PM,66.2,50.0,56,30.18,10.0,South,10.4,16.1,N/A,,Partly Cloudy,180,2013-04-30 19:35:00
3:55 PM,66.2,48.2,52,30.17,10.0,SSE,8.1,-,N/A,,Scattered Clouds,160,2013-04-30 19:55:00
4:15 PM,66.2,48.2,52,30.17,10.0,South,8.1,-,N/A,,Mostly Cloudy,180,2013-04-30 20:15:00
4:35 PM,66.2,48.2,52,30.16,10.0,SSE,9.2,-,N/A,,Partly Cloudy,160,2013-04-30 20:35:00
4:55 PM,64.4,48.2,56,30.15,10.0,SE,10.4,-,N/A,,Clear,140,2013-04-30 20:55:00
5:15 PM,66.2,48.2,52,30.15,10.0,SSE,9.2,-,N/A,,Clear,150,2013-04-30 21:15:00
5:35 PM,64.4,48.2,56,30.14,10.0,SSE,12.7,16.1,N/A,,Clear,160,2013-04-30 21:35:00
5:55 PM,64.4,48.2,56,30.14,10.0,SSE,12.7,19.6,N/A,,Mostly Cloudy,150,2013-04-30 21:55:00
6:15 PM,64.4,48.2,56,30.13,10.0,SSE,16.1,20.7,N/A,,Partly Cloudy,160,2013-04-30 22:15:00
6:35 PM,64.4,48.2,56,30.12,10.0,SSE,16.1,24.2,N/A,,Clear,160,2013-04-30 22:35:00
6:55 PM,62.6,48.2,59,30.15,10.0,SSE,11.5,19.6,N/A,,Clear,150,2013-04-30 22:55:00
7:15 PM,62.6,48.2,59,30.14,10.0,SSE,15.0,20.7,N/A,,Clear,150,2013-04-30 23:15:00
7:35 PM,62.6,48.2,59,30.15,10.0,SSE,11.5,18.4,N/A,,Clear,160,2013-04-30 23:35:00
7:55 PM,60.8,46.4,59,30.16,10.0,SSE,13.8,20.7,N/A,,Clear,160,2013-04-30 23:55:00
8:15 PM,60.8,46.4,59,30.16,10.0,SSE,13.8,18.4,N/A,,Clear,160,2013-05-01 00:15:00
8:35 PM,59.0,46.4,63,30.17,10.0,SSE,12.7,19.6,N/A,,Clear,160,2013-05-01 00:35:00
8:55 PM,57.2,46.4,67,30.18,10.0,South,13.8,20.7,N/A,,Clear,170,2013-05-01 00:55:00
9:15 PM,57.2,46.4,67,30.19,10.0,South,15.0,20.7,N/A,,Clear,170,2013-05-01 01:15:00
9:35 PM,57.2,46.4,67,30.19,10.0,South,18.4,26.5,N/A,,Clear,170,2013-05-01 01:35:00
9:55 PM,57.2,46.4,67,30.20,10.0,South,17.3,23.0,N/A,,Clear,170,2013-05-01 01:55:00
10:15 PM,55.4,46.4,72,30.21,10.0,South,13.8,19.6,N/A,,Clear,170,2013-05-01 02:15:00
10:35 PM,55.4,46.4,72,30.22,10.0,South,13.8,18.4,N/A,,Clear,180,2013-05-01 02:35:00
10:55 PM,55.4,46.4,72,30.22,10.0,South,13.8,20.7,N/A,,Partly Cloudy,170,2013-05-01 02:55:00
11:15 PM,55.4,46.4,72,30.23,10.0,South,15.0,-,N/A,,Mostly Cloudy,180,2013-05-01 03:15:00
11:35 PM,55.4,46.4,72,30.23,10.0,South,13.8,21.9,N/A,,Scattered Clouds,180,2013-05-01 03:35:00
11:55 PM,55.4,46.4,72,30.23,10.0,South,11.5,17.3,N/A,,Clear,180,2013-05-01 03:55:00